contact:dominique.lefevre@mio.osupytheas.fr, maurice.libes@osupytheas.fr, didier.mallarino@osupytheas.fr
Project:EMSO http://www.emso-fr.org/EMSO-France
Depth: 2436.0 m
Title:EMSO Ligure Ouest : Data MII capteur MICROCAT
DateTime_Computer,Latitude,Longitude,Temperature,Conductivity,Pressure,DateTime_Instrument
DateTime_Computer,Latitude,Longitude,degC,S m-1,dbar,DateTime_Instrument
2017-12-06T00:00:03Z,42.805,6.029,13.2932,4.59953,2472.01,2017-12-06T02:01:33Z
2017-12-06T00:03:06Z,42.805,6.029,13.2944,4.59953,2472.047,2017-12-06T02:04:35Z
2017-12-06T00:06:09Z,42.805,6.029,13.2936,4.59954,2472.024,2017-12-06T02:07:38Z
2017-12-06T00:09:12Z,42.805,6.029,13.2937,4.59953,2472.032,2017-12-06T02:10:41Z
2017-12-06T00:12:15Z,42.805,6.029,13.2938,4.59954,2472.002,2017-12-06T02:13:44Z
2017-12-06T00:15:18Z,42.805,6.029,13.2934,4.59953,2471.987,2017-12-06T02:16:47Z
2017-12-06T00:18:21Z,42.805,6.029,13.2933,4.59954,2472.01,2017-12-06T02:19:50Z
2017-12-06T00:21:24Z,42.805,6.029,13.2938,4.59953,2472.047,2017-12-06T02:22:53Z
2017-12-06T00:24:27Z,42.805,6.029,13.2935,4.59957,2472.032,2017-12-06T02:25:56Z
2017-12-06T00:27:29Z,42.805,6.029,13.2935,4.59954,2472.032,2017-12-06T02:28:59Z
2017-12-06T00:30:32Z,42.805,6.029,13.2935,4.59953,2472.01,2017-12-06T02:32:01Z
2017-12-06T00:33:35Z,42.805,6.029,13.2939,4.59954,2472.01,2017-12-06T02:35:04Z
2017-12-06T00:36:38Z,42.805,6.029,13.2939,4.59956,2472.01,2017-12-06T02:38:07Z
2017-12-06T00:39:41Z,42.805,6.029,13.2936,4.59953,2472.032,2017-12-06T02:41:10Z
2017-12-06T00:42:44Z,42.805,6.029,13.2937,4.59953,2472.002,2017-12-06T02:44:13Z
2017-12-06T00:45:47Z,42.805,6.029,13.2939,4.59955,2472.002,2017-12-06T02:47:16Z
2017-12-06T00:48:50Z,42.805,6.029,13.2940,4.59956,2471.987,2017-12-06T02:50:19Z
2017-12-06T00:51:53Z,42.805,6.029,13.2933,4.59956,2472.002,2017-12-06T02:53:22Z
2017-12-06T00:54:55Z,42.805,6.029,13.2939,4.59953,2472.024,2017-12-06T02:56:25Z
2017-12-06T00:57:58Z,42.805,6.029,13.2937,4.59953,2472.002,2017-12-06T02:59:27Z
2017-12-06T01:01:01Z,42.805,6.029,13.2934,4.59953,2472.002,2017-12-06T03:02:30Z
2017-12-06T01:04:04Z,42.805,6.029,13.2939,4.59958,2472.024,2017-12-06T03:05:33Z
2017-12-06T01:07:07Z,42.805,6.029,13.2935,4.59953,2471.964,2017-12-06T03:08:36Z
2017-12-06T01:10:10Z,42.805,6.029,13.2934,4.59953,2472.002,2017-12-06T03:11:39Z
2017-12-06T01:13:13Z,42.805,6.029,13.2935,4.59953,2472.002,2017-12-06T03:14:42Z
2017-12-06T01:16:16Z,42.805,6.029,13.2940,4.59953,2471.957,2017-12-06T03:17:45Z
2017-12-06T01:19:19Z,42.805,6.029,13.2935,4.59953,2472.002,2017-12-06T03:20:48Z
2017-12-06T01:22:21Z,42.805,6.029,13.2937,4.59953,2471.987,2017-12-06T03:23:51Z
2017-12-06T01:25:24Z,42.805,6.029,13.2933,4.59953,2471.964,2017-12-06T03:26:53Z
2017-12-06T01:28:27Z,42.805,6.029,13.2932,4.59953,2471.964,2017-12-06T03:29:56Z
2017-12-06T01:31:30Z,42.805,6.029,13.2937,4.59954,2471.979,2017-12-06T03:32:59Z
2017-12-06T01:34:33Z,42.805,6.029,13.2933,4.59955,2472.002,2017-12-06T03:36:02Z
2017-12-06T01:37:36Z,42.805,6.029,13.2938,4.59952,2471.964,2017-12-06T03:39:05Z
2017-12-06T01:40:39Z,42.805,6.029,13.2934,4.59953,2471.964,2017-12-06T03:42:08Z
2017-12-06T01:43:42Z,42.805,6.029,13.2935,4.59952,2472.024,2017-12-06T03:45:11Z
2017-12-06T01:46:45Z,42.805,6.029,13.2936,4.59953,2471.979,2017-12-06T03:48:14Z
2017-12-06T01:49:47Z,42.805,6.029,13.2935,4.59954,2471.979,2017-12-06T03:51:17Z
2017-12-06T01:52:50Z,42.805,6.029,13.2939,4.59953,2471.957,2017-12-06T03:54:19Z
2017-12-06T01:55:53Z,42.805,6.029,13.2938,4.59957,2471.942,2017-12-06T03:57:22Z
2017-12-06T01:58:56Z,42.805,6.029,13.2939,4.59956,2471.942,2017-12-06T04:00:25Z
2017-12-06T02:01:59Z,42.805,6.029,13.2939,4.59953,2471.979,2017-12-06T04:03:28Z
2017-12-06T02:05:02Z,42.805,6.029,13.2935,4.59952,2471.979,2017-12-06T04:06:31Z
2017-12-06T02:08:05Z,42.805,6.029,13.2937,4.59952,2471.964,2017-12-06T04:09:34Z
2017-12-06T02:11:08Z,42.805,6.029,13.2935,4.59953,2471.964,2017-12-06T04:12:37Z
2017-12-06T02:14:10Z,42.805,6.029,13.2935,4.59953,2471.942,2017-12-06T04:15:40Z
2017-12-06T02:17:13Z,42.805,6.029,13.2939,4.59953,2471.964,2017-12-06T04:18:42Z
2017-12-06T02:20:16Z,42.805,6.029,13.2935,4.59953,2471.942,2017-12-06T04:21:45Z
2017-12-06T02:23:19Z,42.805,6.029,13.2935,4.59953,2471.942,2017-12-06T04:24:48Z
2017-12-06T02:26:22Z,42.805,6.029,13.2934,4.59954,2471.964,2017-12-06T04:27:51Z
2017-12-06T02:29:25Z,42.805,6.029,13.2935,4.59954,2471.957,2017-12-06T04:30:54Z
2017-12-06T02:32:28Z,42.805,6.029,13.2935,4.59953,2471.964,2017-12-06T04:33:57Z
2017-12-06T02:35:31Z,42.805,6.029,13.2939,4.59952,2471.942,2017-12-06T04:37:00Z
2017-12-06T02:38:34Z,42.805,6.029,13.2934,4.59953,2471.964,2017-12-06T04:40:03Z
2017-12-06T02:41:36Z,42.805,6.029,13.2936,4.59952,2471.957,2017-12-06T04:43:06Z
2017-12-06T02:44:39Z,42.805,6.029,13.2938,4.59953,2471.942,2017-12-06T04:46:08Z
2017-12-06T02:47:42Z,42.805,6.029,13.2936,4.59953,2471.919,2017-12-06T04:49:11Z
2017-12-06T02:50:45Z,42.805,6.029,13.2935,4.59952,2471.934,2017-12-06T04:52:14Z
2017-12-06T02:53:48Z,42.805,6.029,13.2938,4.59953,2471.942,2017-12-06T04:55:17Z
2017-12-06T02:56:51Z,42.805,6.029,13.2935,4.59952,2471.957,2017-12-06T04:58:20Z
2017-12-06T02:59:54Z,42.805,6.029,13.2935,4.59953,2471.942,2017-12-06T05:01:23Z
2017-12-06T03:02:57Z,42.805,6.029,13.2935,4.59952,2471.934,2017-12-06T05:04:26Z
2017-12-06T03:06:00Z,42.805,6.029,13.2933,4.59953,2471.957,2017-12-06T05:07:29Z
2017-12-06T03:09:02Z,42.805,6.029,13.2934,4.59952,2471.919,2017-12-06T05:10:32Z
2017-12-06T03:12:05Z,42.805,6.029,13.2935,4.59953,2471.934,2017-12-06T05:13:34Z
2017-12-06T03:15:08Z,42.805,6.029,13.2932,4.59953,2471.934,2017-12-06T05:16:37Z
2017-12-06T03:18:11Z,42.805,6.029,13.2933,4.59953,2471.979,2017-12-06T05:19:40Z
2017-12-06T03:21:14Z,42.805,6.029,13.2933,4.59953,2471.897,2017-12-06T05:22:43Z
2017-12-06T03:24:17Z,42.805,6.029,13.2933,4.59955,2471.934,2017-12-06T05:25:46Z
2017-12-06T03:27:20Z,42.805,6.029,13.2940,4.59952,2471.957,2017-12-06T05:28:49Z
2017-12-06T03:30:23Z,42.805,6.029,13.2934,4.59952,2471.979,2017-12-06T05:31:52Z
2017-12-06T03:33:26Z,42.805,6.029,13.2939,4.59953,2471.957,2017-12-06T05:34:55Z
2017-12-06T03:36:28Z,42.805,6.029,13.2933,4.59952,2471.957,2017-12-06T05:37:58Z
2017-12-06T03:39:31Z,42.805,6.029,13.2935,4.59952,2471.942,2017-12-06T05:41:00Z
2017-12-06T03:42:34Z,42.805,6.029,13.2935,4.59958,2471.942,2017-12-06T05:44:03Z
2017-12-06T03:45:37Z,42.805,6.029,13.2935,4.59952,2471.979,2017-12-06T05:47:06Z
2017-12-06T03:48:40Z,42.805,6.029,13.2935,4.59953,2471.919,2017-12-06T05:50:09Z
2017-12-06T03:51:43Z,42.805,6.029,13.2935,4.59955,2471.964,2017-12-06T05:53:12Z
2017-12-06T03:54:46Z,42.805,6.029,13.2934,4.59953,2471.957,2017-12-06T05:56:15Z
2017-12-06T03:57:49Z,42.805,6.029,13.2934,4.59952,2471.979,2017-12-06T05:59:18Z
2017-12-06T04:00:51Z,42.805,6.029,13.2934,4.59952,2471.964,2017-12-06T06:02:21Z
2017-12-06T04:03:54Z,42.805,6.029,13.2933,4.59952,2471.957,2017-12-06T06:05:24Z
2017-12-06T04:06:57Z,42.805,6.029,13.2932,4.59952,2471.979,2017-12-06T06:08:26Z
2017-12-06T04:10:00Z,42.805,6.029,13.2932,4.59952,2471.957,2017-12-06T06:11:29Z
2017-12-06T04:13:03Z,42.805,6.029,13.2937,4.59954,2471.987,2017-12-06T06:14:32Z
2017-12-06T04:16:06Z,42.805,6.029,13.2935,4.59953,2471.957,2017-12-06T06:17:35Z
2017-12-06T04:19:09Z,42.805,6.029,13.2936,4.59953,2471.942,2017-12-06T06:20:38Z
2017-12-06T04:22:12Z,42.805,6.029,13.2935,4.59954,2472.002,2017-12-06T06:23:41Z
2017-12-06T04:25:15Z,42.805,6.029,13.2936,4.59953,2471.979,2017-12-06T06:26:44Z
2017-12-06T04:28:17Z,42.805,6.029,13.2934,4.59953,2471.979,2017-12-06T06:29:47Z
2017-12-06T04:31:20Z,42.805,6.029,13.2934,4.59953,2471.964,2017-12-06T06:32:50Z
2017-12-06T04:34:23Z,42.805,6.029,13.2935,4.59952,2472.002,2017-12-06T06:35:52Z
2017-12-06T04:37:26Z,42.805,6.029,13.2935,4.59951,2471.964,2017-12-06T06:38:55Z
2017-12-06T04:40:29Z,42.805,6.029,13.2931,4.59952,2472.01,2017-12-06T06:41:58Z
2017-12-06T04:43:32Z,42.805,6.029,13.2936,4.59952,2472.002,2017-12-06T06:45:01Z
2017-12-06T04:46:35Z,42.805,6.029,13.2935,4.59953,2471.987,2017-12-06T06:48:04Z
2017-12-06T04:49:38Z,42.805,6.029,13.2936,4.59952,2471.964,2017-12-06T06:51:07Z
2017-12-06T04:52:41Z,42.805,6.029,13.2936,4.59952,2471.987,2017-12-06T06:54:10Z
2017-12-06T04:55:43Z,42.805,6.029,13.2933,4.59953,2472.047,2017-12-06T06:57:13Z
2017-12-06T04:58:46Z,42.805,6.029,13.2935,4.59953,2472.024,2017-12-06T07:00:16Z
2017-12-06T05:01:49Z,42.805,6.029,13.2935,4.59953,2471.987,2017-12-06T07:03:18Z
2017-12-06T05:04:52Z,42.805,6.029,13.2933,4.59952,2472.01,2017-12-06T07:06:21Z
2017-12-06T05:07:55Z,42.805,6.029,13.2933,4.59953,2472.047,2017-12-06T07:09:24Z
2017-12-06T05:10:58Z,42.805,6.029,13.2934,4.59952,2472.047,2017-12-06T07:12:27Z
2017-12-06T05:14:01Z,42.805,6.029,13.2936,4.59952,2472.047,2017-12-06T07:15:30Z
2017-12-06T05:17:04Z,42.805,6.029,13.2934,4.59953,2472.047,2017-12-06T07:18:33Z
2017-12-06T05:20:07Z,42.805,6.029,13.2935,4.59953,2472.047,2017-12-06T07:21:36Z
2017-12-06T05:23:09Z,42.805,6.029,13.2936,4.59952,2472.047,2017-12-06T07:24:39Z
2017-12-06T05:26:12Z,42.805,6.029,13.2934,4.59953,2472.047,2017-12-06T07:27:41Z
2017-12-06T05:29:15Z,42.805,6.029,13.2936,4.59952,2472.069,2017-12-06T07:30:44Z
2017-12-06T05:32:18Z,42.805,6.029,13.2935,4.59952,2472.047,2017-12-06T07:33:47Z
2017-12-06T05:35:21Z,42.805,6.029,13.2934,4.59953,2472.032,2017-12-06T07:36:50Z
2017-12-06T05:38:24Z,42.805,6.029,13.2935,4.59953,2472.055,2017-12-06T07:39:53Z
2017-12-06T05:41:27Z,42.805,6.029,13.2935,4.59952,2472.047,2017-12-06T07:42:56Z
2017-12-06T05:44:30Z,42.805,6.029,13.2932,4.59953,2472.069,2017-12-06T07:45:59Z
2017-12-06T05:47:33Z,42.805,6.029,13.2934,4.59954,2472.047,2017-12-06T07:49:02Z
2017-12-06T05:50:35Z,42.805,6.029,13.2936,4.59953,2472.069,2017-12-06T07:52:05Z
2017-12-06T05:53:38Z,42.805,6.029,13.2933,4.59953,2472.115,2017-12-06T07:55:07Z
2017-12-06T05:56:41Z,42.805,6.029,13.2937,4.59953,2472.055,2017-12-06T07:58:10Z
2017-12-06T05:59:44Z,42.805,6.029,13.2932,4.59953,2472.077,2017-12-06T08:01:13Z
2017-12-06T06:02:47Z,42.805,6.029,13.2936,4.59954,2472.069,2017-12-06T08:04:16Z
2017-12-06T06:05:50Z,42.805,6.029,13.2932,4.59952,2472.092,2017-12-06T08:07:19Z
2017-12-06T06:08:53Z,42.805,6.029,13.2935,4.59953,2472.092,2017-12-06T08:10:22Z
2017-12-06T06:11:56Z,42.805,6.029,13.2937,4.59953,2472.092,2017-12-06T08:13:25Z
2017-12-06T06:14:59Z,42.805,6.029,13.2938,4.59957,2472.1,2017-12-06T08:16:28Z
2017-12-06T06:18:01Z,42.805,6.029,13.2936,4.59953,2472.077,2017-12-06T08:19:31Z
2017-12-06T06:21:04Z,42.805,6.029,13.2933,4.59953,2472.137,2017-12-06T08:22:33Z
2017-12-06T06:24:07Z,42.805,6.029,13.2936,4.59953,2472.1,2017-12-06T08:25:36Z
2017-12-06T06:27:10Z,42.805,6.029,13.2940,4.59953,2472.137,2017-12-06T08:28:39Z
2017-12-06T06:30:13Z,42.805,6.029,13.2934,4.59954,2472.16,2017-12-06T08:31:42Z
2017-12-06T06:33:16Z,42.805,6.029,13.2934,4.59955,2472.1,2017-12-06T08:34:45Z
2017-12-06T06:36:19Z,42.805,6.029,13.2935,4.59954,2472.16,2017-12-06T08:37:48Z
2017-12-06T06:39:22Z,42.805,6.029,13.2939,4.59953,2472.137,2017-12-06T08:40:51Z
2017-12-06T06:42:24Z,42.805,6.029,13.2936,4.59953,2472.16,2017-12-06T08:43:54Z
2017-12-06T06:45:27Z,42.805,6.029,13.2935,4.59953,2472.145,2017-12-06T08:46:57Z
2017-12-06T06:48:30Z,42.805,6.029,13.2935,4.59954,2472.123,2017-12-06T08:49:59Z
2017-12-06T06:51:33Z,42.805,6.029,13.2934,4.59953,2472.16,2017-12-06T08:53:02Z
2017-12-06T06:54:36Z,42.805,6.029,13.2940,4.59955,2472.145,2017-12-06T08:56:05Z
2017-12-06T06:57:39Z,42.805,6.029,13.2934,4.59954,2472.145,2017-12-06T08:59:08Z
2017-12-06T07:00:42Z,42.805,6.029,13.2935,4.59953,2472.205,2017-12-06T09:02:11Z
2017-12-06T07:03:45Z,42.805,6.029,13.2934,4.59953,2472.168,2017-12-06T09:05:14Z
2017-12-06T07:06:48Z,42.805,6.029,13.2934,4.59957,2472.182,2017-12-06T09:08:17Z
2017-12-06T07:09:50Z,42.805,6.029,13.2932,4.59953,2472.205,2017-12-06T09:11:20Z
2017-12-06T07:12:53Z,42.805,6.029,13.2935,4.59953,2472.19,2017-12-06T09:14:23Z
2017-12-06T07:15:56Z,42.805,6.029,13.2930,4.59954,2472.19,2017-12-06T09:17:25Z
2017-12-06T07:18:59Z,42.805,6.029,13.2935,4.59953,2472.19,2017-12-06T09:20:28Z
2017-12-06T07:22:02Z,42.805,6.029,13.2937,4.59954,2472.182,2017-12-06T09:23:31Z
2017-12-06T07:25:05Z,42.805,6.029,13.2935,4.59953,2472.205,2017-12-06T09:26:34Z
2017-12-06T07:28:08Z,42.805,6.029,13.2934,4.59953,2472.213,2017-12-06T09:29:37Z
2017-12-06T07:31:11Z,42.805,6.029,13.2935,4.59953,2472.19,2017-12-06T09:32:40Z
2017-12-06T07:34:14Z,42.805,6.029,13.2938,4.59953,2472.227,2017-12-06T09:35:43Z
2017-12-06T07:37:16Z,42.805,6.029,13.2936,4.59954,2472.236,2017-12-06T09:38:46Z
2017-12-06T07:40:19Z,42.805,6.029,13.2933,4.59953,2472.205,2017-12-06T09:41:49Z
2017-12-06T07:43:22Z,42.805,6.029,13.2933,4.59954,2472.213,2017-12-06T09:44:51Z
2017-12-06T07:46:25Z,42.805,6.029,13.2935,4.59953,2472.19,2017-12-06T09:47:54Z
2017-12-06T07:49:28Z,42.805,6.029,13.2933,4.59953,2472.25,2017-12-06T09:50:57Z
2017-12-06T07:52:31Z,42.805,6.029,13.2933,4.59953,2472.258,2017-12-06T09:54:00Z
2017-12-06T07:55:34Z,42.805,6.029,13.2935,4.59953,2472.25,2017-12-06T09:57:03Z
2017-12-06T07:58:37Z,42.805,6.029,13.2936,4.59953,2472.236,2017-12-06T10:00:06Z
2017-12-06T08:01:40Z,42.805,6.029,13.2934,4.59954,2472.227,2017-12-06T10:03:09Z
2017-12-06T08:04:42Z,42.805,6.029,13.2937,4.59953,2472.213,2017-12-06T10:06:12Z
2017-12-06T08:07:45Z,42.805,6.029,13.2933,4.59953,2472.272,2017-12-06T10:09:15Z
2017-12-06T08:10:48Z,42.805,6.029,13.2934,4.59952,2472.258,2017-12-06T10:12:17Z
2017-12-06T08:13:51Z,42.805,6.029,13.2933,4.59953,2472.227,2017-12-06T10:15:20Z
2017-12-06T08:16:54Z,42.805,6.029,13.2933,4.59953,2472.25,2017-12-06T10:18:23Z
2017-12-06T08:19:57Z,42.805,6.029,13.2933,4.59953,2472.272,2017-12-06T10:21:26Z
2017-12-06T08:23:00Z,42.805,6.029,13.2940,4.59954,2472.258,2017-12-06T10:24:29Z
2017-12-06T08:26:03Z,42.805,6.029,13.2933,4.59954,2472.236,2017-12-06T10:27:32Z
2017-12-06T08:29:06Z,42.805,6.029,13.2936,4.59953,2472.25,2017-12-06T10:30:35Z
2017-12-06T08:32:08Z,42.805,6.029,13.2941,4.59954,2472.272,2017-12-06T10:33:38Z
2017-12-06T08:35:11Z,42.805,6.029,13.2935,4.59955,2472.227,2017-12-06T10:36:41Z
2017-12-06T08:38:14Z,42.805,6.029,13.2934,4.59956,2472.236,2017-12-06T10:39:43Z
2017-12-06T08:41:17Z,42.805,6.029,13.2935,4.59953,2472.272,2017-12-06T10:42:46Z
2017-12-06T08:44:20Z,42.805,6.029,13.2933,4.59953,2472.258,2017-12-06T10:45:49Z
2017-12-06T08:47:23Z,42.805,6.029,13.2933,4.59954,2472.258,2017-12-06T10:48:52Z
2017-12-06T08:50:26Z,42.805,6.029,13.2934,4.59957,2472.258,2017-12-06T10:51:55Z
2017-12-06T08:53:29Z,42.805,6.029,13.2935,4.59954,2472.25,2017-12-06T10:54:58Z
2017-12-06T08:56:32Z,42.805,6.029,13.2937,4.59953,2472.272,2017-12-06T10:58:01Z
2017-12-06T08:59:35Z,42.805,6.029,13.2932,4.59955,2472.272,2017-12-06T11:01:04Z
2017-12-06T09:02:37Z,42.805,6.029,13.2935,4.59956,2472.227,2017-12-06T11:04:07Z
2017-12-06T09:05:40Z,42.805,6.029,13.2935,4.59956,2472.258,2017-12-06T11:07:09Z
2017-12-06T09:08:43Z,42.805,6.029,13.2938,4.59956,2472.258,2017-12-06T11:10:12Z
2017-12-06T09:11:46Z,42.805,6.029,13.2935,4.59957,2472.25,2017-12-06T11:13:15Z
2017-12-06T09:14:49Z,42.805,6.029,13.2933,4.59953,2472.25,2017-12-06T11:16:18Z
2017-12-06T09:17:52Z,42.805,6.029,13.2935,4.59954,2472.25,2017-12-06T11:19:21Z
2017-12-06T09:20:55Z,42.805,6.029,13.2937,4.59953,2472.236,2017-12-06T11:22:24Z
2017-12-06T09:23:58Z,42.805,6.029,13.2936,4.59954,2472.272,2017-12-06T11:25:27Z
2017-12-06T09:27:01Z,42.805,6.029,13.2939,4.59955,2472.25,2017-12-06T11:28:30Z
2017-12-06T09:30:03Z,42.805,6.029,13.2937,4.59955,2472.258,2017-12-06T11:31:33Z
2017-12-06T09:33:06Z,42.805,6.029,13.2934,4.59954,2472.281,2017-12-06T11:34:35Z
2017-12-06T09:36:09Z,42.805,6.029,13.2939,4.59954,2472.25,2017-12-06T11:37:38Z
2017-12-06T09:39:12Z,42.805,6.029,13.2932,4.59954,2472.25,2017-12-06T11:40:41Z
2017-12-06T09:42:15Z,42.805,6.029,13.2934,4.59954,2472.272,2017-12-06T11:43:44Z
2017-12-06T09:45:18Z,42.805,6.029,13.2935,4.59955,2472.258,2017-12-06T11:46:47Z
2017-12-06T09:48:21Z,42.805,6.029,13.2935,4.59955,2472.272,2017-12-06T11:49:50Z
2017-12-06T09:51:24Z,42.805,6.029,13.2936,4.59955,2472.25,2017-12-06T11:52:53Z
2017-12-06T09:54:27Z,42.805,6.029,13.2935,4.59956,2472.281,2017-12-06T11:55:56Z
2017-12-06T09:57:29Z,42.805,6.029,13.2934,4.59953,2472.236,2017-12-06T11:58:59Z
2017-12-06T10:00:32Z,42.805,6.029,13.2933,4.59953,2472.272,2017-12-06T12:02:02Z
2017-12-06T10:03:35Z,42.805,6.029,13.2936,4.59954,2472.25,2017-12-06T12:05:04Z
2017-12-06T10:06:38Z,42.805,6.029,13.2935,4.59954,2472.258,2017-12-06T12:08:07Z
2017-12-06T10:09:41Z,42.805,6.029,13.2932,4.59954,2472.258,2017-12-06T12:11:10Z
2017-12-06T10:12:44Z,42.805,6.029,13.2935,4.59954,2472.272,2017-12-06T12:14:13Z
2017-12-06T10:15:47Z,42.805,6.029,13.2934,4.59953,2472.25,2017-12-06T12:17:16Z
2017-12-06T10:18:50Z,42.805,6.029,13.2935,4.59955,2472.227,2017-12-06T12:20:19Z
2017-12-06T10:21:53Z,42.805,6.029,13.2935,4.59955,2472.236,2017-12-06T12:23:22Z
2017-12-06T10:24:55Z,42.805,6.029,13.2934,4.59953,2472.272,2017-12-06T12:26:25Z
2017-12-06T10:27:58Z,42.805,6.029,13.2939,4.59954,2472.25,2017-12-06T12:29:28Z
2017-12-06T10:31:01Z,42.805,6.029,13.2937,4.59955,2472.236,2017-12-06T12:32:30Z
2017-12-06T10:34:04Z,42.805,6.029,13.2933,4.59954,2472.25,2017-12-06T12:35:33Z
2017-12-06T10:37:07Z,42.805,6.029,13.2934,4.59954,2472.227,2017-12-06T12:38:36Z
2017-12-06T10:40:10Z,42.805,6.029,13.2932,4.59954,2472.265,2017-12-06T12:41:39Z
2017-12-06T10:43:13Z,42.805,6.029,13.2932,4.59954,2472.25,2017-12-06T12:44:42Z
2017-12-06T10:46:16Z,42.805,6.029,13.2935,4.59954,2472.236,2017-12-06T12:47:45Z
2017-12-06T10:49:19Z,42.805,6.029,13.2938,4.59955,2472.213,2017-12-06T12:50:48Z
2017-12-06T10:52:22Z,42.805,6.029,13.2935,4.59955,2472.227,2017-12-06T12:53:51Z
2017-12-06T10:55:24Z,42.805,6.029,13.2933,4.59957,2472.227,2017-12-06T12:56:54Z
2017-12-06T10:58:27Z,42.805,6.029,13.2936,4.59954,2472.205,2017-12-06T12:59:56Z
2017-12-06T11:01:30Z,42.805,6.029,13.2934,4.59956,2472.227,2017-12-06T13:02:59Z
2017-12-06T11:04:33Z,42.805,6.029,13.2934,4.59955,2472.227,2017-12-06T13:06:02Z
2017-12-06T11:07:36Z,42.805,6.029,13.2937,4.59955,2472.227,2017-12-06T13:09:05Z
2017-12-06T11:10:39Z,42.805,6.029,13.2936,4.59954,2472.19,2017-12-06T13:12:08Z
2017-12-06T11:13:42Z,42.805,6.029,13.2934,4.59956,2472.205,2017-12-06T13:15:11Z
2017-12-06T11:16:45Z,42.805,6.029,13.2935,4.59955,2472.19,2017-12-06T13:18:14Z
2017-12-06T11:19:48Z,42.805,6.029,13.2936,4.59955,2472.205,2017-12-06T13:21:17Z
2017-12-06T11:22:50Z,42.805,6.029,13.2935,4.59957,2472.227,2017-12-06T13:24:20Z
2017-12-06T11:25:53Z,42.805,6.029,13.2934,4.59954,2472.227,2017-12-06T13:27:22Z
2017-12-06T11:28:56Z,42.805,6.029,13.2932,4.59955,2472.227,2017-12-06T13:30:25Z
2017-12-06T11:31:59Z,42.805,6.029,13.2936,4.59957,2472.19,2017-12-06T13:33:28Z
2017-12-06T11:35:02Z,42.805,6.029,13.2935,4.59955,2472.205,2017-12-06T13:36:31Z
2017-12-06T11:38:05Z,42.805,6.029,13.2935,4.59958,2472.205,2017-12-06T13:39:34Z
2017-12-06T11:41:08Z,42.805,6.029,13.2937,4.59953,2472.205,2017-12-06T13:42:37Z
2017-12-06T11:44:11Z,42.805,6.029,13.2937,4.59955,2472.19,2017-12-06T13:45:40Z
2017-12-06T11:47:14Z,42.805,6.029,13.2939,4.59954,2472.205,2017-12-06T13:48:43Z
2017-12-06T11:50:16Z,42.805,6.029,13.2934,4.59956,2472.205,2017-12-06T13:51:46Z
2017-12-06T11:53:19Z,42.805,6.029,13.2933,4.59953,2472.205,2017-12-06T13:54:49Z
2017-12-06T11:56:22Z,42.805,6.029,13.2939,4.59953,2472.182,2017-12-06T13:57:51Z
2017-12-06T11:59:25Z,42.805,6.029,13.2934,4.59954,2472.213,2017-12-06T14:00:54Z
2017-12-06T12:02:28Z,42.805,6.029,13.2936,4.59954,2472.205,2017-12-06T14:03:57Z
2017-12-06T12:05:31Z,42.805,6.029,13.2935,4.59954,2472.205,2017-12-06T14:07:00Z
2017-12-06T12:08:34Z,42.805,6.029,13.2934,4.59955,2472.182,2017-12-06T14:10:03Z
2017-12-06T12:11:37Z,42.805,6.029,13.2934,4.59953,2472.16,2017-12-06T14:13:06Z
2017-12-06T12:14:40Z,42.805,6.029,13.2935,4.59953,2472.16,2017-12-06T14:16:09Z
2017-12-06T12:17:42Z,42.805,6.029,13.2933,4.59956,2472.182,2017-12-06T14:19:12Z
2017-12-06T12:20:45Z,42.805,6.029,13.2933,4.59957,2472.182,2017-12-06T14:22:15Z
2017-12-06T12:23:48Z,42.805,6.029,13.2936,4.59954,2472.16,2017-12-06T14:25:17Z
2017-12-06T12:26:51Z,42.805,6.029,13.2935,4.59953,2472.145,2017-12-06T14:28:20Z
2017-12-06T12:29:54Z,42.805,6.029,13.2939,4.59956,2472.182,2017-12-06T14:31:23Z
2017-12-06T12:32:57Z,42.805,6.029,13.2935,4.59955,2472.168,2017-12-06T14:34:26Z
2017-12-06T12:36:00Z,42.805,6.029,13.2940,4.59956,2472.168,2017-12-06T14:37:29Z
2017-12-06T12:39:03Z,42.805,6.029,13.2937,4.59955,2472.16,2017-12-06T14:40:32Z
2017-12-06T12:42:06Z,42.805,6.029,13.2933,4.59953,2472.145,2017-12-06T14:43:35Z
2017-12-06T12:45:08Z,42.805,6.029,13.2935,4.59954,2472.137,2017-12-06T14:46:38Z
2017-12-06T12:48:11Z,42.805,6.029,13.2937,4.59954,2472.182,2017-12-06T14:49:41Z
2017-12-06T12:51:14Z,42.805,6.029,13.2936,4.59952,2472.145,2017-12-06T14:52:43Z
2017-12-06T12:54:17Z,42.805,6.029,13.2935,4.59952,2472.145,2017-12-06T14:55:46Z
2017-12-06T12:57:20Z,42.805,6.029,13.2935,4.59952,2472.137,2017-12-06T14:58:49Z
2017-12-06T13:00:23Z,42.805,6.029,13.2937,4.59951,2472.123,2017-12-06T15:01:52Z
2017-12-06T13:03:26Z,42.805,6.029,13.2934,4.59953,2472.115,2017-12-06T15:04:55Z
2017-12-06T13:06:29Z,42.805,6.029,13.2938,4.59953,2472.123,2017-12-06T15:07:58Z
2017-12-06T13:09:32Z,42.805,6.029,13.2937,4.59951,2472.115,2017-12-06T15:11:01Z
2017-12-06T13:12:34Z,42.805,6.029,13.2933,4.59952,2472.1,2017-12-06T15:14:04Z
2017-12-06T13:15:37Z,42.805,6.029,13.2939,4.59954,2472.115,2017-12-06T15:17:07Z
2017-12-06T13:18:40Z,42.805,6.029,13.2940,4.59952,2472.145,2017-12-06T15:20:09Z
2017-12-06T13:21:43Z,42.805,6.029,13.2935,4.59953,2472.1,2017-12-06T15:23:12Z
2017-12-06T13:24:46Z,42.805,6.029,13.2938,4.59953,2472.115,2017-12-06T15:26:15Z
2017-12-06T13:27:49Z,42.805,6.029,13.2930,4.59952,2472.115,2017-12-06T15:29:18Z
2017-12-06T13:30:52Z,42.805,6.029,13.2933,4.59952,2472.092,2017-12-06T15:32:21Z
2017-12-06T13:33:55Z,42.805,6.029,13.2936,4.59952,2472.115,2017-12-06T15:35:24Z
2017-12-06T13:36:58Z,42.805,6.029,13.2932,4.59953,2472.115,2017-12-06T15:38:27Z
2017-12-06T13:40:01Z,42.805,6.029,13.2936,4.59954,2472.115,2017-12-06T15:41:30Z
2017-12-06T13:43:03Z,42.805,6.029,13.2935,4.59953,2472.055,2017-12-06T15:44:33Z
2017-12-06T13:46:06Z,42.805,6.029,13.2935,4.59953,2472.115,2017-12-06T15:47:35Z
2017-12-06T13:49:09Z,42.805,6.029,13.2935,4.59952,2472.123,2017-12-06T15:50:38Z
2017-12-06T13:52:12Z,42.805,6.029,13.2935,4.59954,2472.1,2017-12-06T15:53:41Z
2017-12-06T13:55:15Z,42.805,6.029,13.2935,4.59951,2472.1,2017-12-06T15:56:44Z
2017-12-06T13:58:18Z,42.805,6.029,13.2933,4.59953,2472.055,2017-12-06T15:59:47Z
2017-12-06T14:01:21Z,42.805,6.029,13.2930,4.59954,2472.069,2017-12-06T16:02:50Z
2017-12-06T14:04:24Z,42.805,6.029,13.2933,4.59953,2472.115,2017-12-06T16:05:53Z
2017-12-06T14:07:27Z,42.805,6.029,13.2938,4.59953,2472.092,2017-12-06T16:08:56Z
2017-12-06T14:10:29Z,42.805,6.029,13.2933,4.59955,2472.077,2017-12-06T16:11:59Z
2017-12-06T14:13:32Z,42.805,6.029,13.2939,4.59953,2472.1,2017-12-06T16:15:02Z
2017-12-06T14:16:35Z,42.805,6.029,13.2932,4.59956,2472.069,2017-12-06T16:18:04Z
2017-12-06T14:19:38Z,42.805,6.029,13.2934,4.59953,2472.092,2017-12-06T16:21:07Z
2017-12-06T14:22:41Z,42.805,6.029,13.2936,4.59956,2472.092,2017-12-06T16:24:10Z
2017-12-06T14:25:44Z,42.805,6.029,13.2932,4.59954,2472.115,2017-12-06T16:27:13Z
2017-12-06T14:28:47Z,42.805,6.029,13.2933,4.59960,2472.069,2017-12-06T16:30:16Z
2017-12-06T14:31:50Z,42.805,6.029,13.2939,4.59959,2472.024,2017-12-06T16:33:19Z
2017-12-06T14:34:53Z,42.805,6.029,13.2943,4.59958,2472.055,2017-12-06T16:36:22Z
2017-12-06T14:37:55Z,42.805,6.029,13.2937,4.59961,2472.069,2017-12-06T16:39:25Z
2017-12-06T14:40:58Z,42.805,6.029,13.2935,4.59953,2472.077,2017-12-06T16:42:28Z
2017-12-06T14:44:01Z,42.805,6.029,13.2932,4.59952,2472.024,2017-12-06T16:45:30Z
2017-12-06T14:47:04Z,42.805,6.029,13.2936,4.59955,2472.055,2017-12-06T16:48:33Z
2017-12-06T14:50:07Z,42.805,6.029,13.2933,4.59955,2472.069,2017-12-06T16:51:36Z
2017-12-06T14:53:10Z,42.805,6.029,13.2935,4.59959,2472.055,2017-12-06T16:54:39Z
2017-12-06T14:56:13Z,42.805,6.029,13.2934,4.59953,2472.069,2017-12-06T16:57:42Z